Location: Hylvaty SDH
(49.9612°N, 16.4057°E)
Time: 12:45:23
(UTC+01:00)

A-11 Canister half - Pass Details

Date: 03 October 2020
Orbit: 1526 x 1683 km, 47.3° (Epoch: 28 October)

Event Time Altitude Azimuth Distance (km) Brightness Sun altitude
Rises 05:48:40 0° 287° (WNW) 4,746 - -11.9°
Reaches altitude 10° 05:52:48 10° 272° (W) 3,784 - -11.3°
Exits shadow 05:54:09 13° 265° (W) 3,540 10.2 -11.1°
Maximum altitude 05:59:01 20° 231° (SW) 3,126 10.1 -10.3°
Drops below altitude 10° 06:05:20 10° 190° (S) 3,856 11.0 -9.3°
Sets 06:09:39 0° 174° (S) 4,865 11.7 -8.6°
